| time (UTC) | temp F | wind direction | speed MPH | gust MPH | rain 1hr in | rain 24hr in | rain mn in | humidity % | barometer mb |
| 20260504044350 | 67 | 172 | 4.0 | 5.0 | 0.00 | 0.00 | 0.00 | 1 | 1010.2 |
| 20260504043848 | 68 | 200 | 6.0 | 7.0 | 0.00 | 0.00 | 0.00 | 1 | 1010.4 |
| 20260504043344 | 68 | 186 | 7.0 | 9.0 | 0.00 | 0.00 | 0.00 | 1 | 1010.4 |
| 20260504042842 | 68 | 190 | 3.0 | 5.0 | 0.00 | 0.00 | 0.00 | 1 | 1010.3 |
| 20260504042338 | 68 | 164 | 6.0 | 10.0 | 0.00 | 0.00 | 0.00 | 1 | 1010.5 |
| 20260504041834 | 68 | 198 | 6.0 | 8.0 | 0.00 | 0.00 | 0.00 | 1 | 1010.5 |
| 20260504041331 | 68 | 162 | 7.0 | 8.0 | 0.00 | 0.00 | 0.00 | 1 | 1010.8 |
| 20260504040827 | 68 | 187 | 5.0 | 6.0 | 0.00 | 0.00 | 0.00 | 1 | 1010.4 |
| 20260504040325 | 68 | 193 | 9.0 | 10.0 | 0.00 | 0.00 | 0.00 | 1 | 1010.3 |
| 20260504035820 | 68 | 139 | 4.0 | 6.0 | 0.00 | 0.00 | 0.00 | 1 | 1010.6 |
| 20260504035318 | 69 | 196 | 3.0 | 5.0 | 0.00 | 0.00 | 0.00 | 1 | 1010.5 |
| 20260504034815 | 69 | 184 | 5.0 | 6.0 | 0.00 | 0.00 | 0.00 | 1 | 1010.7 |
| 20260504034313 | 69 | 177 | 6.0 | 8.0 | 0.00 | 0.00 | 0.00 | 1 | 1010.6 |
| 20260504033810 | 69 | 124 | 6.0 | 9.0 | 0.00 | 0.00 | 0.00 | 1 | 1010.8 |
| 20260504033307 | 69 | 188 | 5.0 | 6.0 | 0.00 | 0.00 | 0.00 | 1 | 1010.9 |
| 20260504032803 | 69 | 202 | 3.0 | 3.0 | 0.00 | 0.00 | 0.00 | 1 | 1010.8 |
| 20260504032301 | 69 | 158 | 5.0 | 7.0 | 0.00 | 0.00 | 0.00 | 1 | 1010.8 |
| 20260504031757 | 70 | 190 | 6.0 | 7.0 | 0.00 | 0.00 | 0.00 | 1 | 1010.9 |
| 20260504031255 | 70 | 194 | 5.0 | 6.0 | 0.00 | 0.00 | 0.00 | 1 | 1010.8 |
| 20260504030751 | 70 | 166 | 6.0 | 9.0 | 0.00 | 0.00 | 0.00 | 1 | 1010.9 |
| 20260504030248 | 70 | 219 | 8.0 | 10.0 | 0.00 | 0.00 | 0.00 | 1 | 1010.9 |
| 20260504025744 | 70 | 199 | 7.0 | 9.0 | 0.00 | 0.00 | 0.00 | 1 | 1010.9 |
| 20260504025241 | 70 | 193 | 5.0 | 8.0 | 0.00 | 0.00 | 0.00 | 1 | 1011.0 |
| 20260504024733 | 70 | 176 | 4.0 | 5.0 | 0.00 | 0.00 | 0.00 | 1 | 1010.8 |
| 20260504024229 | 70 | 183 | 5.0 | 6.0 | 0.00 | 0.00 | 0.00 | 1 | 1010.9 |
| 20260504023726 | 70 | 198 | 5.0 | 7.0 | 0.00 | 0.00 | 0.00 | 1 | 1010.9 |
| 20260504023222 | 70 | 188 | 3.0 | 3.0 | 0.00 | 0.00 | 0.00 | 1 | 1010.9 |
| 20260504022718 | 70 | 185 | 5.0 | 8.0 | 0.00 | 0.00 | 0.00 | 1 | 1010.6 |
| 20260504022215 | 70 | 155 | 2.0 | 2.0 | 0.00 | 0.00 | 0.00 | 1 | 1010.7 |
| 20260504021712 | 70 | 180 | 3.0 | 3.0 | 0.00 | 0.00 | 0.00 | 1 | 1010.8 |
| 20260504021209 | 70 | 164 | 3.0 | 5.0 | 0.00 | 0.00 | 0.00 | 1 | 1010.8 |
| 20260504020705 | 71 | 185 | 7.0 | 8.0 | 0.00 | 0.00 | 0.00 | 1 | 1010.6 |
| 20260504020201 | 71 | 213 | 5.0 | 7.0 | 0.00 | 0.00 | 0.00 | 1 | 1010.6 |
| 20260504015659 | 71 | 176 | 4.0 | 5.0 | 0.00 | 0.00 | 0.00 | 1 | 1010.5 |
| 20260504015155 | 71 | 184 | 5.0 | 6.0 | 0.00 | 0.00 | 0.00 | 1 | 1010.7 |
| 20260504014650 | 71 | 180 | 5.0 | 8.0 | 0.00 | 0.00 | 0.00 | 1 | 1010.8 |
| 20260504014147 | 71 | 175 | 5.0 | 6.0 | 0.00 | 0.00 | 0.00 | 1 | 1010.4 |
| 20260504013645 | 71 | 196 | 4.0 | 5.0 | 0.00 | 0.00 | 0.00 | 1 | 1010.4 |
| 20260504013142 | 71 | 161 | 3.0 | 3.0 | 0.00 | 0.00 | 0.00 | 1 | 1010.5 |
| 20260504012639 | 72 | 177 | 5.0 | 6.0 | 0.00 | 0.00 | 0.00 | 1 | 1010.5 |
| 20260504012137 | 72 | 196 | 3.0 | 3.0 | 0.00 | 0.00 | 0.00 | 1 | 1010.4 |
| 20260504011633 | 72 | 191 | 4.0 | 6.0 | 0.00 | 0.00 | 0.00 | 1 | 1010.6 |
| 20260504011130 | 72 | 172 | 3.0 | 3.0 | 0.00 | 0.00 | 0.00 | 1 | 1010.4 |
| 20260504010626 | 73 | 169 | 2.0 | 2.0 | 0.00 | 0.00 | 0.00 | 1 | 1010.4 |
| 20260504010122 | 73 | 168 | 2.0 | 2.0 | 0.00 | 0.00 | 0.00 | 1 | 1010.4 |
| 20260504005619 | 73 | 193 | 4.0 | 5.0 | 0.00 | 0.00 | 0.00 | 1 | 1010.4 |
| 20260504005116 | 74 | 197 | 4.0 | 6.0 | 0.00 | 0.00 | 0.00 | 1 | 1010.4 |
| 20260504004614 | 74 | 174 | 3.0 | 3.0 | 0.00 | 0.00 | 0.00 | 1 | 1010.3 |
| 20260504004111 | 74 | 196 | 3.0 | 3.0 | 0.00 | 0.00 | 0.00 | 1 | 1010.3 |
| 20260504003607 | 75 | 189 | 3.0 | 5.0 | 0.00 | 0.00 | 0.00 | 1 | 1010.3 |
| 20260504003103 | 75 | 183 | 4.0 | 5.0 | 0.00 | 0.00 | 0.00 | 1 | 1010.4 |
| 20260504002600 | 75 | 173 | 4.0 | 5.0 | 0.00 | 0.00 | 0.00 | 1 | 1010.5 |
| 20260504002058 | 76 | 160 | 2.0 | 2.0 | 0.00 | 0.00 | 0.00 | 1 | 1010.4 |
| 20260504001555 | 76 | 185 | 3.0 | 5.0 | 0.00 | 0.00 | 0.00 | 1 | 1010.4 |
| 20260504001051 | 77 | 185 | 3.0 | 3.0 | 0.00 | 0.00 | 0.00 | 1 | 1010.4 |
| 20260504000548 | 77 | 202 | 3.0 | 5.0 | 0.00 | 0.00 | 0.00 | 1 | 1010.3 |
| 20260504000046 | 77 | 143 | 3.0 | 5.0 | 0.00 | 0.00 | 0.00 | 1 | 1010.5 |
| 20260503235544 | 77 | 186 | 4.0 | 5.0 | 0.00 | 0.00 | 0.00 | 1 | 1010.3 |
| 20260503235041 | 77 | 233 | 7.0 | 8.0 | 0.00 | 0.00 | 0.00 | 1 | 1010.5 |
| 20260503234538 | 78 | 210 | 4.0 | 5.0 | 0.00 | 0.00 | 0.00 | 1 | 1010.5 |
| 20260503234037 | 78 | 227 | 6.0 | 7.0 | 0.00 | 0.00 | 0.00 | 1 | 1010.5 |
| 20260503233532 | 78 | 204 | 4.0 | 5.0 | 0.00 | 0.00 | 0.00 | 1 | 1010.4 |
| 20260503233029 | 78 | 174 | 3.0 | 3.0 | 0.00 | 0.00 | 0.00 | 1 | 1010.3 |
| 20260503232526 | 78 | 134 | 10.0 | 11.0 | 0.00 | 0.00 | 0.00 | 1 | 1010.4 |
| 20260503232023 | 79 | 202 | 9.0 | 11.0 | 0.00 | 0.00 | 0.00 | 1 | 1010.4 |
| 20260503231521 | 79 | 172 | 4.0 | 6.0 | 0.00 | 0.00 | 0.00 | 1 | 1010.5 |
| 20260503231018 | 79 | 188 | 4.0 | 6.0 | 0.00 | 0.00 | 0.00 | 1 | 1010.5 |
| 20260503230514 | 78 | 194 | 3.0 | 5.0 | 0.00 | 0.00 | 0.00 | 1 | 1010.6 |
| 20260503230012 | 78 | 195 | 7.0 | 8.0 | 0.00 | 0.00 | 0.00 | 1 | 1010.6 |
| 20260503225508 | 78 | 193 | 8.0 | 9.0 | 0.00 | 0.00 | 0.00 | 1 | 1010.6 |
| 20260503224958 | 79 | 226 | 6.0 | 8.0 | 0.00 | 0.00 | 0.00 | 1 | 1010.7 |
| 20260503224456 | 78 | 208 | 5.0 | 6.0 | 0.00 | 0.00 | 0.00 | 1 | 1010.7 |
| 20260503223953 | 78 | 247 | 10.0 | 13.0 | 0.00 | 0.00 | 0.00 | 1 | 1010.6 |
| 20260503223451 | 79 | 191 | 6.0 | 8.0 | 0.00 | 0.00 | 0.00 | 1 | 1010.6 |
| 20260503222946 | 78 | 179 | 4.0 | 6.0 | 0.00 | 0.00 | 0.00 | 1 | 1010.5 |
| 20260503222445 | 78 | 189 | 6.0 | 7.0 | 0.00 | 0.00 | 0.00 | 1 | 1010.6 |
| 20260503221943 | 78 | 215 | 11.0 | 16.0 | 0.00 | 0.00 | 0.00 | 1 | 1010.6 |
| 20260503221441 | 78 | 176 | 8.0 | 10.0 | 0.00 | 0.00 | 0.00 | 1 | 1010.5 |
| 20260503220937 | 79 | 179 | 3.0 | 3.0 | 0.00 | 0.00 | 0.00 | 1 | 1010.6 |
| 20260503220433 | 79 | 208 | 6.0 | 8.0 | 0.00 | 0.00 | 0.00 | 1 | 1010.8 |
| 20260503215931 | 78 | 241 | 9.0 | 10.0 | 0.00 | 0.00 | 0.00 | 1 | 1010.6 |
| 20260503215427 | 78 | 221 | 13.0 | 15.0 | 0.00 | 0.00 | 0.00 | 1 | 1010.9 |
| 20260503214925 | 78 | 210 | 7.0 | 8.0 | 0.00 | 0.00 | 0.00 | 1 | 1010.8 |
| 20260503214423 | 78 | 220 | 8.0 | 9.0 | 0.00 | 0.00 | 0.00 | 1 | 1010.9 |
| 20260503213920 | 78 | 216 | 11.0 | 14.0 | 0.00 | 0.00 | 0.00 | 1 | 1010.9 |
| 20260503213418 | 78 | 237 | 10.0 | 14.0 | 0.00 | 0.00 | 0.00 | 1 | 1011.0 |
| 20260503212914 | 78 | 209 | 12.0 | 15.0 | 0.00 | 0.00 | 0.00 | 1 | 1010.8 |
| 20260503212412 | 78 | 193 | 11.0 | 15.0 | 0.00 | 0.00 | 0.00 | 1 | 1011.1 |
| 20260503211909 | 77 | 180 | 4.0 | 6.0 | 0.00 | 0.00 | 0.00 | 1 | 1011.1 |
| 20260503211405 | 77 | 214 | 8.0 | 9.0 | 0.00 | 0.00 | 0.00 | 1 | 1010.8 |
| 20260503210900 | 77 | 221 | 7.0 | 9.0 | 0.00 | 0.00 | 0.00 | 1 | 1011.0 |
| 20260503210358 | 78 | 218 | 10.0 | 11.0 | 0.00 | 0.00 | 0.00 | 1 | 1011.2 |
| 20260503205852 | 78 | 223 | 5.0 | 7.0 | 0.00 | 0.00 | 0.00 | 1 | 1011.3 |
| 20260503205350 | 77 | 203 | 5.0 | 6.0 | 0.00 | 0.00 | 0.00 | 1 | 1011.4 |
| 20260503204846 | 77 | 220 | 7.0 | 10.0 | 0.00 | 0.00 | 0.00 | 1 | 1011.5 |
| 20260503204343 | 78 | 221 | 9.0 | 14.0 | 0.00 | 0.00 | 0.00 | 1 | 1011.4 |
| 20260503203840 | 77 | 214 | 10.0 | 14.0 | 0.00 | 0.00 | 0.00 | 1 | 1011.4 |
| 20260503203338 | 77 | 199 | 10.0 | 13.0 | 0.00 | 0.00 | 0.00 | 1 | 1011.8 |
| 20260503202835 | 77 | 171 | 5.0 | 6.0 | 0.00 | 0.00 | 0.00 | 1 | 1011.8 |
| 20260503202333 | 77 | 204 | 9.0 | 11.0 | 0.00 | 0.00 | 0.00 | 1 | 1012.2 |
| 20260503201831 | 77 | 190 | 7.0 | 9.0 | 0.00 | 0.00 | 0.00 | 1 | 1012.2 |
| 20260503201327 | 76 | 205 | 8.0 | 9.0 | 0.00 | 0.00 | 0.00 | 1 | 1012.4 |
| 20260503200825 | 76 | 209 | 10.0 | 11.0 | 0.00 | 0.00 | 0.00 | 1 | 1012.9 |
| 20260503200321 | 75 | 213 | 7.0 | 7.0 | 0.00 | 0.00 | 0.00 | 1 | 1012.6 |
| 20260503195818 | 76 | 195 | 9.0 | 13.0 | 0.00 | 0.00 | 0.00 | 1 | 1012.9 |
| 20260503195315 | 75 | 200 | 7.0 | 8.0 | 0.00 | 0.00 | 0.00 | 1 | 1012.6 |
| 20260503194812 | 75 | 199 | 10.0 | 13.0 | 0.00 | 0.00 | 0.00 | 1 | 1012.8 |
| 20260503194308 | 74 | 180 | 6.0 | 7.0 | 0.00 | 0.00 | 0.00 | 1 | 1012.8 |
| 20260503193804 | 75 | 235 | 13.0 | 15.0 | 0.00 | 0.00 | 0.00 | 1 | 1012.9 |
| 20260503193300 | 75 | 228 | 10.0 | 13.0 | 0.00 | 0.00 | 0.00 | 1 | 1013.2 |
| 20260503192756 | 74 | 188 | 11.0 | 15.0 | 0.00 | 0.00 | 0.00 | 1 | 1013.1 |
| 20260503192251 | 74 | 197 | 9.0 | 11.0 | 0.00 | 0.00 | 0.00 | 1 | 1013.4 |
| 20260503191748 | 74 | 208 | 9.0 | 13.0 | 0.00 | 0.00 | 0.00 | 1 | 1013.7 |
| 20260503191245 | 74 | 165 | 9.0 | 16.0 | 0.00 | 0.00 | 0.00 | 1 | 1013.5 |
| 20260503190742 | 74 | 177 | 5.0 | 6.0 | 0.00 | 0.00 | 0.00 | 1 | 1013.9 |
| 20260503190239 | 73 | 186 | 5.0 | 8.0 | 0.00 | 0.00 | 0.00 | 1 | 1013.6 |
| 20260503185736 | 73 | 176 | 8.0 | 9.0 | 0.00 | 0.00 | 0.00 | 1 | 1013.9 |
| 20260503185232 | 73 | 197 | 8.0 | 11.0 | 0.00 | 0.00 | 0.00 | 1 | 1014.1 |
| 20260503184727 | 72 | 218 | 7.0 | 10.0 | 0.00 | 0.00 | 0.00 | 1 | 1014.3 |
| 20260503184223 | 72 | 190 | 6.0 | 8.0 | 0.00 | 0.00 | 0.00 | 1 | 1014.4 |
| 20260503183720 | 73 | 187 | 12.0 | 14.0 | 0.00 | 0.00 | 0.00 | 1 | 1014.4 |
| 20260503183217 | 72 | 202 | 7.0 | 9.0 | 0.00 | 0.00 | 0.00 | 1 | 1014.6 |
| 20260503182715 | 72 | 204 | 12.0 | 14.0 | 0.00 | 0.00 | 0.00 | 1 | 1014.7 |
| 20260503182214 | 72 | 213 | 7.0 | 8.0 | 0.00 | 0.00 | 0.00 | 1 | 1014.9 |
| 20260503181709 | 73 | 209 | 9.0 | 10.0 | 0.00 | 0.00 | 0.00 | 1 | 1015.0 |
| 20260503181207 | 72 | 263 | 4.0 | 6.0 | 0.00 | 0.00 | 0.00 | 1 | 1015.2 |
| 20260503180703 | 71 | 232 | 7.0 | 9.0 | 0.00 | 0.00 | 0.00 | 1 | 1015.1 |
| 20260503180202 | 71 | 198 | 5.0 | 9.0 | 0.00 | 0.00 | 0.00 | 1 | 1015.4 |
| 20260503175658 | 70 | 196 | 6.0 | 7.0 | 0.00 | 0.00 | 0.00 | 1 | 1015.7 |
| 20260503175156 | 71 | 210 | 13.0 | 14.0 | 0.00 | 0.00 | 0.00 | 1 | 1015.6 |
| 20260503174651 | 71 | 220 | 5.0 | 7.0 | 0.00 | 0.00 | 0.00 | 1 | 1015.7 |
| 20260503174149 | 70 | 207 | 8.0 | 13.0 | 0.00 | 0.00 | 0.00 | 1 | 1015.7 |
| 20260503173644 | 70 | 194 | 7.0 | 8.0 | 0.00 | 0.00 | 0.00 | 1 | 1015.7 |
| 20260503173141 | 70 | 182 | 7.0 | 9.0 | 0.00 | 0.00 | 0.00 | 1 | 1015.9 |
| 20260503172638 | 70 | 200 | 7.0 | 8.0 | 0.00 | 0.00 | 0.00 | 1 | 1015.8 |
| 20260503172135 | 70 | 200 | 7.0 | 8.0 | 0.00 | 0.00 | 0.00 | 1 | 1016.3 |
| 20260503171631 | 69 | 188 | 11.0 | 15.0 | 0.00 | 0.00 | 0.00 | 1 | 1016.4 |
| 20260503171129 | 68 | 197 | 7.0 | 8.0 | 0.00 | 0.00 | 0.00 | 1 | 1016.3 |
| 20260503170626 | 68 | 211 | 6.0 | 10.0 | 0.00 | 0.00 | 0.00 | 1 | 1016.5 |
| 20260503170122 | 68 | 188 | 5.0 | 8.0 | 0.00 | 0.00 | 0.00 | 1 | 1016.4 |
| 20260503150514 | 60 | 232 | 9.0 | 11.0 | 0.00 | 0.00 | 0.00 | 1 | 1018.5 |
| 20260503131401 | 52 | 183 | 5.0 | 7.0 | 0.00 | 0.00 | 0.00 | 1 | 1019.2 |
| 20260503130858 | 52 | 181 | 4.0 | 5.0 | 0.00 | 0.00 | 0.00 | 1 | 1019.1 |
| 20260503130356 | 51 | 186 | 4.0 | 6.0 | 0.00 | 0.00 | 0.00 | 1 | 1019.2 |
| 20260503110755 | 47 | 149 | 3.0 | 3.0 | 0.00 | 0.00 | 0.00 | 1 | 1018.8 |
| 20260503110252 | 47 | 139 | 2.0 | 2.0 | 0.00 | 0.00 | 0.00 | 1 | 1018.8 |
| 20260503100219 | 45 | 148 | 3.0 | 3.0 | 0.00 | 0.00 | 0.00 | 1 | 1018.9 |
| 20260503090148 | 44 | 146 | 0.0 | 1.0 | 0.00 | 0.00 | 0.00 | 1 | 1019.5 |
| 20260503081623 | 43 | 146 | 0.0 | 0.0 | 0.00 | 0.00 | 0.00 | 1 | 1019.6 |
| 20260503081121 | 43 | 145 | 0.0 | 0.0 | 0.00 | 0.00 | 0.00 | 1 | 1019.8 |
| 20260503080616 | 44 | 153 | 1.0 | 1.0 | 0.00 | 0.00 | 0.00 | 1 | 1019.5 |
| 20260503080113 | 44 | 142 | 0.0 | 0.0 | 0.00 | 0.00 | 0.00 | 1 | 1019.8 |
| 20260503072550 | 44 | 141 | 0.0 | 0.0 | 0.00 | 0.00 | 0.00 | 1 | 1019.9 |
| 20260503072047 | 44 | 139 | 0.0 | 0.0 | 0.00 | 0.00 | 0.00 | 1 | 1019.9 |
| 20260503071544 | 44 | 139 | 0.0 | 0.0 | 0.00 | 0.00 | 0.00 | 1 | 1020.0 |
| 20260503071041 | 44 | 147 | 1.0 | 2.0 | 0.00 | 0.00 | 0.00 | 1 | 1020.1 |
| 20260503070537 | 44 | 141 | 0.0 | 0.0 | 0.00 | 0.00 | 0.00 | 1 | 1020.0 |
| 20260503054951 | 45 | 141 | 0.0 | 1.0 | 0.00 | 0.00 | 0.00 | 1 | 1020.5 |
| 20260503054447 | 45 | 146 | 0.0 | 0.0 | 0.00 | 0.00 | 0.00 | 1 | 1020.6 |
| 20260503053945 | 46 | 144 | 0.0 | 0.0 | 0.00 | 0.00 | 0.00 | 1 | 1020.7 |
| 20260503053443 | 46 | 139 | 0.0 | 0.0 | 0.00 | 0.00 | 0.00 | 1 | 1020.3 |
| 20260503052939 | 46 | 131 | 0.0 | 0.0 | 0.00 | 0.00 | 0.00 | 1 | 1020.5 |
| 20260503052437 | 46 | 128 | 0.0 | 0.0 | 0.00 | 0.00 | 0.00 | 1 | 1020.6 |
| 20260503051933 | 46 | 138 | 0.0 | 0.0 | 0.00 | 0.00 | 0.00 | 1 | 1020.4 |
| 20260503051429 | 46 | 138 | 1.0 | 1.0 | 0.00 | 0.00 | 0.00 | 1 | 1020.5 |
| 20260503050926 | 46 | 138 | 0.0 | 0.0 | 0.00 | 0.00 | 0.00 | 1 | 1020.5 |
| 20260503050422 | 46 | 137 | 0.0 | 0.0 | 0.00 | 0.00 | 0.00 | 1 | 1020.6 |
| 20260503045920 | 46 | 134 | 0.0 | 0.0 | 0.00 | 0.00 | 0.00 | 1 | 1020.6 |
| 20260503045417 | 46 | 144 | 0.0 | 0.0 | 0.00 | 0.00 | 0.00 | 1 | 1020.6 |
| 20260503044914 | 45 | 137 | 0.0 | 0.0 | 0.00 | 0.00 | 0.00 | 1 | 1020.4 |